ONEWEB-0200, 48244

Orbit data source: Space-Track

ONEWEB-0200, 48244 is a payload satellite owned by One Web (NAA) (UK) in LEO that was launched on Sun, 25 Apr 2021 UTC via a SOYUZ-2-1B launch vehicle from the Vostochny Cosmodrome (VOSTO). Payload-class satellites include a variety of spacecraft equipped with specific instruments for various scientific and technological missions. These include communications satellites like Starlink; space stations such as the ISS; scientific satellites like the Hubble; Earth observation satellites from companies like Planet Labs, Umbra, and HawkEye 360; GPS; miniature CubeSats for education and research; and military/defense satellites.

Loading next visibility...
Identifier
48244, 2021-031AL
Orbit
LEO
Country
Flag of UKUK
Related business
Manufacturer
One Web
Mission
Operational Commercial Communications
Bus & Motor
ARROW, Unknown motor
Mass
148 kg wet, ~140 kg dry
Launch date (UTC)
2021-04-25 (5 years ago)
Launch vehicle
SOYUZ-2-1B
Launch site
Vostochny Cosmodrome (VOSTO)
Object type
Payload
Rocket body
Debris
Shape & HBR
Trap Box + 2 Pan, 6.7 m
Radar Cross Section
3.464 m², Large (>1 m²)

Expand to show TLE details & history
Last TLE update: 18 hours ago

TLE from 18 hours ago
0 ONEWEB-0200
1 48244U 21031AL  25306.14023746  .00000799  00000-0  21203-2 0  9997
2 48244  87.9009 334.9263 0001977  92.7006 267.4350 13.14513490218408
Epoch: 2025-11-02T03:21Z
TLE epoch observation values (Epoch: 2025-11-02T03:21:56.516Z)
Latitude
-0.00003°
Longitude
-117.21943°
Altitude
1,208.71 km
Speed
7.25 km/s
True Right ascension
22h 19m 42s
True Declination
0° 00' 00"
Sunlit
Object was in daylight at epoch
Visualization orbit readout
Latitude
Unknown
Longitude
Unknown
Altitude
Unknown
Speed
Unknown
Apparent Right ascension
Unknown
Apparent Declination
Unknown
Sunlit
N/A
Visualization observer readout
Local Sidereal Time
16:58:06
Azimuth
Unknown
Elevation
Unknown
Doppler factor
Unknown
Orbital elements
Apogee altitude
1,204.362 km
Perigee altitude
1,201.364 km
Semi-major axis
7,581 km
Eccentricity
0.0002
Inclination
87.9009°
RAAN
334.9263°
Arg. of periapsis
92.7006°
True anomaly
267.41237°
Mean anomaly
267.435°
Eccentric anomaly
267.42368°
Mean motion
3.28816 °/min
Orbital period
109.48 mins
BSTAR
0.0021203
Loading maneuver chart data...
Computing Atmospheric mass density...
Loading historical data...
Loading historical data...
Loading historical data...
Loading historical data...
Loading historical data...
Loading historical data...
Loading historical data...

Documentation

Showing up to 5 results
|